Weather in Zerkal'noye

Russia / Primorsky Krai     44˚13′00″N   135˚33′10″E
temp.,
°C
wind,
m/s
gust,
m/s
humid.,
%
clouds,
%
prec.,
mm/h
press.,
hPa
HPBL,
m
16 january, sat
sat1601:00−10˚nnw2594100 4.3 1010217
04:00−9˚nw2494100 6.7 1010208
07:00−14˚wnw4777100 0.1 1014291
10:00−15˚wnw51070100 0.1 1018545
13:00−13˚nw61262100 0.0 1018662
16:00−13˚nw5106367 0.0 1018708
19:00−20˚nw46810 0.0 1020187
22:00−22˚wnw46850 0.0 1021184
17 january, sun
sun1701:00−24˚wnw46860 0.0 1022147
04:00−24˚wnw46840 0.0 1021168
07:00−25˚wnw45860 0.0 1021122
10:00−22˚wnw45780 0.0 1021186
13:00−15˚wnw36640 0.0 1019487
16:00−14˚wnw49650 0.0 1017748
19:00−20˚wnw23820 0.0 101949
22:00−22˚wnw23869 0.0 102050
18 january, mon
mon1801:00−23˚wnw238618 0.0 101947
04:00−22˚wnw228334 0.0 101735
07:00−19˚nw227685 0.0 101440
10:00−16˚nnw129393 0.1 1013100
13:00−12˚nne1189100 1.4 1009209
16:00−11˚nw1383100 2.2 1006572
19:00−17˚nw81574100 0.5 1009720
22:00−19˚nw81869100 0.6 1010749
19 january, tue
tue1901:00−20˚nw91965100 0.0 1013861
04:00−21˚nw9196578 0.0 1018980
07:00−23˚wnw720670 0.0 1022888
10:00−23˚wnw718660 0.0 1026794
13:00−20˚wnw716620 0.0 1028883
16:00−20˚nw717660 0.0 1028745
19:00−24˚wnw411760 0.0 1031424
22:00−27˚wnw45850 0.0 1033134
20 january, wed
wed2001:00−27˚wnw45820 0.0 1032135
04:00−26˚wnw45770 0.0 1032115
07:00−25˚wnw34710 0.0 103190
10:00−20˚wnw34650 0.0 1030114
13:00−12˚w34600 0.0 1026291
16:00−8˚w37680 0.0 1024815
19:00−13˚wnw23850 0.0 102451
22:00−14˚wnw238823 0.0 102443